[[{"header":{"parameterUnit":"m.s-1","parameterCategory":1,"la1":30.2991,"la2":30.254,"lo1":-89.0895,"lo2":-89.0444,"dy":0.0017,"dx":0.0017,"nx":28,"ny":28,"refTime":"2024-04-06T21:00:00:Z","depth":0,"parameterNumber":2,"parameterNumberName":"U-component_of_WINDS"},"data":[0,0,0,0,0,0,0,0,0,0,0,0,0,0,0,0,0,0,0,0,0,0,0,0,0,0,0,0,0,0,0,0,0,0,0,0,0,0,0,0,0,0,0,0,0,0,0,0,0,0,0,0,0,0,0,0,0,0,-5.1485,-5.1485,0,-5.1533,-5.1534,-5.1534,-5.1516,-5.1515,-5.1514,-5.1513,-5.1561,-5.1563,-5.1565,0,0,0,0,0,0,0,0,0,0,0,0,0,-5.1375,-5.1377,-5.1485,-5.1485,-5.1486,-5.1533,-5.1534,-5.1535,-5.1517,-5.1515,-5.1514,-5.1513,-5.156,-5.1562,-5.1565,0,0,0,0,0,0,0,0,0,0,0,0,0,-5.1423,-5.1378,-5.1484,-5.1483,-5.1483,-5.1533,-5.1534,-5.1535,-5.1517,-5.1515,-5.1514,-5.1512,-5.1559,-5.1562,-5.1566,-5.162,0,0,-5.1576,-5.1578,0,0,0,0,0,0,0,0,-5.1421,-5.1427,-5.1482,-5.1483,-5.1483,-5.1517,-5.1513,-5.1563,-5.1517,-5.1504,-5.1513,-5.1511,-5.1547,-5.1552,-5.1564,-5.1622,-5.1624,-5.1576,-5.1578,-5.158,-5.1581,0,0,0,0,0,0,0,-5.1417,-5.1425,-5.1504,-5.1483,-5.1484,-5.1479,-5.1484,-5.1522,-5.1534,-5.1505,-5.1504,-5.151,-5.1547,-5.1561,-5.1565,-5.1625,-5.1576,-5.1579,-5.1581,-5.1583,-5.1731,-5.1732,0,0,0,0,0,0,-5.1414,-5.1422,-5.1502,-5.1505,-5.1447,-5.1483,-5.1488,-5.1508,-5.1534,-5.1536,-5.1511,-5.1509,-5.1556,-5.1561,-5.1567,-5.1631,-5.158,-5.1583,-5.1585,-5.1729,-5.1731,-5.1733,0,0,0,0,0,0,-5.1412,-5.1421,-5.15,-5.1464,-5.1473,-5.1486,-5.1509,-5.151,-5.1523,-5.1539,-5.154,-5.1523,-5.1555,-5.1562,-5.1607,-5.1633,-5.1585,-5.1588,-5.1727,-5.1729,-5.1732,-5.1762,0,0,0,0,0,0,-5.1409,-5.142,-5.1441,-5.1464,-5.1475,-5.154,-5.151,-5.1512,-5.153,-5.1527,-5.155,-5.1552,-5.1554,-5.1602,-5.1611,-5.1637,-5.159,-5.1724,-5.1728,-5.1731,-5.1758,-5.1765,-5.1771,0,0,0,0,0,-5.1405,-5.1447,-5.1442,-5.1452,-5.1501,-5.1541,-5.1548,-5.1549,-5.1532,-5.1552,-5.1563,-5.1552,-5.163,-5.1607,-5.1616,-5.1644,-5.1722,-5.1727,-5.1731,-5.1755,-5.1764,-5.1771,0,0,0,0,0,0,-5.1424,-5.1449,-5.1445,-5.1495,-5.1517,-5.1538,-5.1564,-5.1558,-5.1584,-5.158,-5.1581,-5.1586,-5.1633,-5.1643,-5.1618,-5.1698,-5.1673,-5.168,-5.1689,-5.1697,-5.1703,-5.1698,-5.1593,0,0,0,0,0,-5.1435,-5.1466,-5.1486,-5.1529,-5.154,-5.1551,-5.1568,-5.1568,-5.1589,-5.1598,-5.1611,-5.1632,-5.1661,-5.168,-5.1708,-5.1761,-5.1766,-5.1785,-5.1792,-5.1797,-5.1801,-5.183,-5.1838,-5.1747,-5.1747,-5.1747,0,0,-5.1456,-5.1474,-5.1493,-5.1533,-5.155,-5.1581,-5.1558,-5.1592,-5.1615,-5.1603,-5.1646,-5.1657,-5.1681,-5.173,-5.1753,-5.174,-5.1828,-5.1802,-5.1806,-5.1807,-5.1835,-5.1844,-5.1851,-5.175,-5.1749,-5.1749,0,0,-5.151,-5.1528,-5.1565,-5.1583,-5.1609,-5.1616,-5.1625,-5.1649,-5.1656,-5.17,-5.1692,-5.172,-5.177,-5.1787,-5.1803,-5.1868,-5.1858,-5.1877,-5.1908,-5.1937,-5.1944,-5.195,-5.1972,-5.198,-5.1882,-5.1883,-5.1883,0,-5.1532,-5.158,-5.1585,-5.162,-5.1638,-5.1631,-5.1669,-5.1686,-5.1719,-5.1732,-5.1718,-5.1783,-5.1798,-5.1851,-5.1868,-5.1881,-5.1891,-5.1872,-5.1943,-5.1949,-5.1955,-5.1976,-5.1984,-5.1884,-5.1884,-5.1884,-5.1884,0,-5.1606,-5.164,-5.1667,-5.17,-5.1722,-5.1759,-5.1769,-5.179,-5.179,-5.1799,-5.1845,-5.1864,-5.1895,-5.1909,-5.1908,-5.1963,-5.1954,-5.1943,-5.1917,-5.1966,-5.1985,-5.1993,-5.1887,-5.1887,-5.1886,-5.1885,0,0,-5.1669,-5.1708,-5.1717,-5.1733,-5.1763,-5.1789,-5.1826,-5.1858,-5.1876,-5.1901,-5.1931,-5.1976,-5.1966,-5.1984,-5.1985,-5.2011,-5.206,-5.1996,-5.1996,-5.2005,-5.2121,-5.2127,-5.2136,-5.2056,-5.2058,-5.2059,-5.2118,0,-5.1724,-5.1789,-5.1796,-5.1854,-5.1884,-5.1881,-5.1913,-5.1935,-5.1945,-5.1973,-5.1985,-5.2016,-5.2001,-5.2011,-5.2037,-5.2049,-5.2083,-5.2045,-5.2083,-5.2084,-5.2073,-5.2147,-5.2154,-5.2208,-5.2126,-5.2127,-5.2128,0,-5.1795,-5.1823,-5.1885,-5.1912,-5.1925,-5.1954,-5.1985,-5.2012,-5.2038,-5.2044,-5.2065,-5.2065,-5.2103,-5.2079,-5.2132,-5.2106,-5.2123,-5.2132,-5.2134,-5.2134,-5.2106,-5.2147,-5.2226,-5.2233,-5.214,-5.214,-5.2139,0,-5.1833,-5.1886,-5.193,-5.1944,-5.1977,-5.1997,-5.2012,-5.2036,-5.2056,-5.2084,-5.2097,-5.2129,-5.2145,-5.217,-5.2178,-5.216,-5.223,-5.2207,-5.2235,-5.2235,-5.2246,-5.2245,-5.2326,-5.2263,-5.2262,-5.2262,-5.2262,0,-5.1891,-5.1928,-5.1947,-5.1973,-5.2016,-5.2024,-5.2066,-5.208,-5.2102,-5.2131,-5.2131,-5.2158,-5.2168,-5.2198,-5.2205,-5.2247,-5.2255,-5.226,-5.2261,-5.2258,-5.2257,-5.2266,-5.2262,-5.2264,-5.2264,-5.2264,-5.2263,0,-5.1938,-5.1953,-5.2,-5.2029,-5.2037,-5.2066,-5.2091,-5.2117,-5.2129,-5.2166,-5.2175,-5.2193,-5.2228,-5.224,-5.2282,-5.2287,-5.2335,-5.2334,-5.2326,-5.2325,-5.2352,-5.2348,-5.2439,-5.2451,-5.2382,-5.2383,-5.2384,0,-5.1973,-5.2001,-5.2034,-5.2055,-5.207,-5.2103,-5.2123,-5.2135,-5.2156,-5.2189,-5.2211,-5.2246,-5.2274,-5.233,-5.2346,-5.2379,-5.2377,-5.2407,-5.2381,-5.2378,-5.2375,-5.2372,-5.2374,-5.241,-5.2411,-5.2411,-5.2412,0,-5.2032,-5.2039,-5.2069,-5.2103,-5.2128,-5.2154,-5.218,-5.2197,-5.2212,-5.2236,-5.2272,-5.2295,-5.2339,-5.2373,-5.2407,-5.2422,-5.2419,-5.2421,-5.2428,-5.2424,-5.2417,-5.2419,-5.2336,-5.2417,-5.2417,-5.2416,-5.2416,-5.2416,-5.2072,-5.2098,-5.2126,-5.216,-5.2181,-5.2206,-5.2232,-5.2248,-5.2279,-5.2316,-5.2321,-5.236,-5.2387,-5.2432,-5.2449,-5.248,-5.2471,-5.2483,-5.2485,-5.2487,-5.2488,-5.2416,-5.2486,-5.2486,-5.2486,-5.2486,-5.2486,0,-5.213,-5.2149,-5.218,-5.2217,-5.2244,-5.2243,-5.2272,-5.2294,-5.2329,-5.2355,-5.2383,-5.2425,-5.246,-5.2481,-5.2515,-5.2536,-5.2535,-5.2544,-5.2541,-5.2544,-5.2495,-5.2484,-5.2544,-5.2544,-5.2544,-5.2544,-5.2544,-5.2544,-5.2163,-5.2206,-5.2216,-5.227,-5.2289,-5.2327,-5.2344,-5.2367,-5.2388,-5.2435,-5.2464,-5.2479,-5.2503,-5.254,-5.2571,-5.2577,-5.2588,-5.2597,-5.2602,-5.2554,-5.2548,-5.2542,-5.2531,-5.2601,-5.2601,-5.2648,-5.2649,-5.2649]},{"header":{"parameterUnit":"m.s-1","parameterCategory":1,"la1":30.2991,"la2":30.254,"lo1":-89.0895,"lo2":-89.0444,"dy":0.0017,"dx":0.0017,"nx":28,"ny":28,"refTime":"2024-04-06T21:00:00:Z","depth":0,"parameterNumber":3,"parameterNumberName":"V-component_of_WINDS"},"data":[0,0,0,0,0,0,0,0,0,0,0,0,0,0,0,0,0,0,0,0,0,0,0,0,0,0,0,0,0,0,0,0,0,0,0,0,0,0,0,0,0,0,0,0,0,0,0,0,0,0,0,0,0,0,0,0,0,0,3.0415,3.0415,0,3.0389,3.0388,3.0388,3.0412,3.0413,3.0414,3.0415,3.0383,3.0381,3.038,0,0,0,0,0,0,0,0,0,0,0,0,0,3.0485,3.0483,3.0415,3.0415,3.0415,3.0389,3.0388,3.0388,3.0412,3.0413,3.0414,3.0415,3.0384,3.0382,3.038,0,0,0,0,0,0,0,0,0,0,0,0,0,3.0456,3.0483,3.0415,3.0424,3.0424,3.0389,3.0388,3.0388,3.0412,3.0413,3.0414,3.0416,3.0384,3.0382,3.0379,3.0333,0,0,3.0371,3.037,0,0,0,0,0,0,0,0,3.0457,3.0453,3.0423,3.0423,3.0423,3.0405,3.0401,3.0369,3.0411,3.0416,3.0415,3.0417,3.0389,3.0386,3.0378,3.0332,3.033,3.0371,3.0369,3.0368,3.0367,0,0,0,0,0,0,0,3.0459,3.0455,3.0405,3.0422,3.0423,3.0428,3.0425,3.0395,3.0394,3.0416,3.0417,3.0414,3.0389,3.038,3.0377,3.033,3.0371,3.0369,3.0367,3.0366,3.0248,3.0247,0,0,0,0,0,0,3.0461,3.0456,3.0406,3.0404,3.0445,3.0425,3.0423,3.0409,3.0395,3.0394,3.0413,3.0415,3.0384,3.038,3.0376,3.0323,3.0368,3.0366,3.0364,3.025,3.0248,3.0246,0,0,0,0,0,0,3.0462,3.0456,3.0407,3.0431,3.0425,3.0423,3.0408,3.0408,3.0399,3.0393,3.0392,3.0404,3.0385,3.038,3.0345,3.0322,3.0365,3.0362,3.0252,3.0249,3.0247,3.0216,0,0,0,0,0,0,3.0464,3.0457,3.0439,3.043,3.0423,3.0376,3.0406,3.0407,3.0395,3.0398,3.0384,3.0383,3.0386,3.0349,3.0342,3.032,3.036,3.0254,3.0251,3.0248,3.0219,3.0213,3.0208,0,0,0,0,0,3.0467,3.043,3.0438,3.0432,3.0402,3.0375,3.0371,3.0376,3.0393,3.0376,3.0372,3.0384,3.0326,3.0345,3.0338,3.0314,3.0255,3.0251,3.0248,3.0221,3.0214,3.0208,0,0,0,0,0,0,3.0434,3.0429,3.0438,3.0397,3.0387,3.0379,3.0357,3.0367,3.035,3.0353,3.0359,3.0356,3.0319,3.0313,3.0334,3.027,3.0293,3.0288,3.0275,3.0268,3.0263,3.0265,3.0358,0,0,0,0,0,3.0423,3.0402,3.0398,3.0363,3.0357,3.0358,3.0346,3.0352,3.034,3.0335,3.0329,3.0316,3.0296,3.0282,3.0262,3.0219,3.0217,3.0199,3.0193,3.0189,3.0184,3.0163,3.0155,3.0235,3.0235,3.0235,0,0,3.0398,3.0392,3.0378,3.0356,3.0348,3.0327,3.0354,3.0329,3.0313,3.0331,3.0298,3.0294,3.028,3.0241,3.0224,3.0235,3.0162,3.0184,3.0181,3.0179,3.0159,3.0151,3.0144,3.0233,3.0233,3.0233,0,0,3.0342,3.0335,3.0306,3.0299,3.0288,3.029,3.0283,3.0274,3.0273,3.0241,3.0254,3.0235,3.0199,3.019,3.018,3.0125,3.0135,3.0118,3.0088,3.0067,3.0061,3.0056,3.0037,3.003,3.0114,3.0114,3.0114,0,3.0311,3.0281,3.0289,3.0265,3.0255,3.0273,3.0244,3.0236,3.0219,3.0211,3.0225,3.0182,3.0174,3.0135,3.0122,3.0113,3.0106,3.0119,3.0062,3.0056,3.0051,3.0033,3.0026,3.0112,3.0112,3.0112,3.0112,0,3.0245,3.0224,3.0201,3.0187,3.0175,3.0148,3.0153,3.0139,3.0146,3.0146,3.0115,3.0106,3.0087,3.0078,3.0083,3.004,3.0047,3.0061,3.0084,3.0041,3.0025,3.0018,3.0109,3.011,3.011,3.0111,0,0,3.0165,3.0159,3.0151,3.0146,3.0137,3.012,3.0095,3.0078,3.0067,3.0055,3.0034,3.0005,3.0019,3.0008,3.0013,2.9995,2.9953,3.0011,3.0011,3.0001,2.9906,2.9896,2.9888,2.9961,2.996,2.9959,2.9908,0,3.011,3.0067,3.0076,3.0034,3.0015,3.0034,3.0012,3.0004,3.0004,2.9988,2.9988,2.9968,2.9987,2.9981,2.9964,2.9962,2.9934,2.9966,2.9941,2.994,2.9944,2.9879,2.9868,2.982,2.9901,2.99,2.9899,0,3.0038,3.0027,2.9984,2.9981,2.9974,2.9954,2.9941,2.9925,2.9917,2.9918,2.9908,2.9918,2.9893,2.9918,2.9884,2.9905,2.9896,2.9894,2.9892,2.989,2.9917,2.9875,2.9805,2.9798,2.9889,2.989,2.9891,0,2.9986,2.996,2.9931,2.9926,2.9922,2.9908,2.9905,2.9899,2.9889,2.9877,2.9871,2.9856,2.9847,2.9835,2.984,2.9857,2.9806,2.983,2.9806,2.9806,2.9794,2.9794,2.9721,2.9788,2.9788,2.9788,2.9788,0,2.9923,2.9896,2.9908,2.989,2.9862,2.9872,2.9843,2.9842,2.9837,2.982,2.9835,2.9818,2.9826,2.981,2.9814,2.9786,2.9782,2.9782,2.9784,2.9781,2.9781,2.9775,2.9778,2.9786,2.9787,2.9787,2.9787,0,2.9859,2.9866,2.9836,2.9836,2.9835,2.9814,2.9813,2.9797,2.98,2.9778,2.9773,2.9777,2.9759,2.9764,2.9743,2.9746,2.9711,2.9717,2.9715,2.9716,2.9692,2.9694,2.9612,2.9602,2.9675,2.9674,2.9674,0,2.9818,2.9798,2.9797,2.9788,2.9785,2.9768,2.976,2.977,2.976,2.9752,2.9737,2.9721,2.9708,2.9679,2.9679,2.9664,2.967,2.9642,2.9667,2.9666,2.967,2.9671,2.967,2.9636,2.9636,2.9635,2.9634,0,2.9746,2.9751,2.9738,2.9728,2.9718,2.9709,2.9702,2.9693,2.9703,2.9691,2.9674,2.9665,2.9646,2.963,2.9618,2.9614,2.9626,2.9627,2.9621,2.9618,2.9618,2.9618,2.9701,2.9628,2.9629,2.9629,2.963,2.963,2.9692,2.9677,2.9675,2.9661,2.9657,2.9651,2.9636,2.9639,2.9625,2.9612,2.9619,2.96,2.9595,2.9579,2.9575,2.956,2.957,2.9561,2.9558,2.9556,2.9554,2.9621,2.9557,2.9557,2.9558,2.9558,2.9558,0,2.9622,2.9622,2.9609,2.96,2.959,2.9605,2.9598,2.9588,2.9571,2.9566,2.9555,2.9537,2.9522,2.9523,2.951,2.9498,2.9503,2.9494,2.9495,2.9494,2.9544,2.9552,2.949,2.949,2.949,2.949,2.949,2.949,2.9584,2.9559,2.9564,2.9538,2.9538,2.9521,2.9517,2.9511,2.9508,2.9487,2.9476,2.9478,2.9475,2.9462,2.945,2.9451,2.9445,2.9434,2.9436,2.9483,2.949,2.9497,2.9503,2.9433,2.9433,2.9387,2.9387,2.9387]}]]